West Porterville
DateTemperatureDew Point
05/10 - 11:30 AM85.0°64.5°
05/10 - 11:15 AM84.2°64.1°
05/10 - 11:00 AM83.7°64.6°
05/10 - 10:45 AM82.7°63.1°
05/10 - 10:30 AM81.9°62.9°
05/10 - 10:15 AM81.0°61.7°
05/10 - 10:00 AM79.9°59.6°
05/10 - 09:45 AM78.9°58.7°
05/10 - 09:30 AM77.5°59.6°
05/10 - 09:15 AM76.0°59.9°
05/10 - 09:00 AM74.2°60.9°
05/10 - 08:45 AM72.5°60.5°
05/10 - 08:30 AM70.7°60.3°
05/10 - 08:15 AM68.6°59.7°
05/10 - 08:00 AM66.9°59.4°
05/10 - 07:45 AM65.1°58.9°
05/10 - 07:30 AM63.2°58.4°
05/10 - 07:15 AM61.4°58.0°
05/10 - 07:00 AM59.7°57.8°
05/10 - 06:45 AM58.4°57.1°
05/10 - 06:30 AM57.8°56.5°
05/10 - 06:15 AM57.1°55.4°
05/10 - 06:00 AM56.9°55.2°
05/10 - 05:45 AM57.1°55.2°
05/10 - 05:30 AM57.3°55.4°
05/10 - 05:15 AM57.6°55.7°
05/10 - 05:00 AM57.9°55.9°
05/10 - 04:45 AM58.2°56.2°
05/10 - 04:30 AM58.3°56.4°
05/10 - 04:15 AM58.8°56.5°
05/10 - 04:00 AM59.2°56.7°
05/10 - 03:45 AM59.5°56.8°
05/10 - 03:30 AM59.6°57.1°
05/10 - 03:15 AM59.8°57.5°
05/10 - 03:00 AM60.0°57.8°
05/10 - 02:45 AM60.1°57.9°
05/10 - 02:30 AM60.1°57.8°
05/10 - 02:15 AM60.4°58.1°
05/10 - 02:00 AM60.3°58.1°
05/10 - 01:45 AM60.4°58.2°
05/10 - 01:30 AM60.7°58.1°
05/10 - 01:15 AM60.9°58.3°
05/10 - 01:00 AM61.3°58.2°
05/10 - 12:45 AM61.7°58.5°
05/10 - 12:30 AM62.2°58.7°
05/10 - 12:15 AM62.8°58.7°
05/10 - 12:00 AM63.2°58.5°
05/09 - 11:45 PM63.4°58.9°
05/09 - 11:30 PM63.5°58.8°
05/09 - 11:15 PM63.6°59.1°
05/09 - 11:00 PM63.8°59.7°
05/09 - 10:45 PM64.2°59.5°
05/09 - 10:30 PM64.5°59.6°
05/09 - 10:15 PM65.0°60.2°
05/09 - 10:00 PM65.4°60.3°
05/09 - 09:45 PM66.0°60.6°
05/09 - 09:30 PM66.6°60.9°
05/09 - 09:15 PM67.3°61.1°
05/09 - 09:00 PM68.1°61.4°
05/09 - 08:45 PM69.4°61.6°
05/09 - 08:30 PM70.7°61.3°
05/09 - 08:15 PM72.0°61.2°
05/09 - 08:00 PM73.6°61.6°
05/09 - 07:45 PM75.3°61.7°
05/09 - 07:30 PM77.3°61.2°
05/09 - 07:15 PM79.1°60.9°
05/09 - 07:00 PM80.7°60.6°
05/09 - 06:45 PM82.2°60.0°
05/09 - 06:30 PM83.3°59.6°
05/09 - 06:15 PM84.4°59.9°
05/09 - 06:00 PM85.2°59.2°
05/09 - 05:45 PM85.9°59.8°
05/09 - 05:30 PM86.3°59.5°
05/09 - 05:15 PM86.9°59.0°
05/09 - 05:00 PM87.4°58.5°
05/09 - 04:45 PM87.8°57.0°
05/09 - 04:30 PM88.1°56.4°
05/09 - 04:15 PM88.3°57.0°
05/09 - 04:00 PM88.6°56.2°
05/09 - 03:45 PM88.6°58.6°
05/09 - 03:30 PM88.7°58.2°
05/09 - 03:15 PM88.8°58.0°
05/09 - 03:00 PM88.6°60.0°
05/09 - 02:45 PM88.4°58.3°
05/09 - 02:30 PM88.5°59.0°
05/09 - 02:15 PM88.3°60.4°
05/09 - 02:00 PM88.2°60.6°
05/09 - 01:45 PM88.0°60.5°
05/09 - 01:30 PM87.7°60.7°
05/09 - 01:15 PM86.6°61.0°
05/09 - 01:00 PM85.7°61.3°
05/09 - 12:45 PM85.2°61.4°
05/09 - 12:30 PM84.3°61.8°
05/09 - 12:15 PM82.8°61.4°
05/09 - 12:00 PM81.7°61.1°
05/09 - 11:45 AM80.7°60.9°
05/09 - 11:30 AM79.9°61.4°
05/09 - 11:15 AM78.9°61.3°
05/09 - 11:00 AM77.6°61.4°
05/09 - 10:45 AM77.0°61.2°
05/09 - 10:30 AM76.1°61.2°
05/09 - 10:15 AM75.0°61.0°
05/09 - 10:00 AM73.7°60.2°
05/09 - 09:45 AM72.8°59.9°
05/09 - 09:30 AM71.7°59.5°
05/09 - 09:15 AM70.4°58.8°
05/09 - 09:00 AM69.1°58.5°
05/09 - 08:45 AM67.7°58.2°
05/09 - 08:30 AM66.1°58.0°
05/09 - 08:15 AM64.5°57.7°
05/09 - 08:00 AM62.4°57.2°
05/09 - 07:45 AM59.9°57.3°
05/09 - 07:30 AM58.0°57.3°
05/09 - 07:15 AM56.9°56.6°
05/09 - 07:00 AM55.6°55.2°
05/09 - 06:45 AM54.4°53.8°
05/09 - 06:30 AM53.6°52.9°
05/09 - 06:15 AM53.0°52.1°
05/09 - 06:00 AM52.7°51.4°
05/09 - 05:45 AM52.7°51.1°
05/09 - 05:30 AM53.0°51.5°
05/09 - 05:15 AM53.2°51.9°
05/09 - 05:00 AM53.4°52.1°
05/09 - 04:45 AM53.7°52.4°
05/09 - 04:30 AM54.0°52.6°
05/09 - 04:15 AM54.2°52.6°
05/09 - 04:00 AM54.4°52.7°
05/09 - 03:45 AM54.6°52.9°
05/09 - 03:30 AM54.6°53.0°
05/09 - 03:15 AM54.9°53.5°
05/09 - 03:00 AM55.0°53.2°
05/09 - 02:45 AM55.4°53.4°
05/09 - 02:30 AM56.1°53.8°
05/09 - 02:15 AM56.5°54.3°
05/09 - 02:00 AM56.8°54.9°
05/09 - 01:45 AM56.9°55.1°
05/09 - 01:30 AM56.9°54.7°
05/09 - 01:15 AM57.2°54.8°
05/09 - 01:00 AM57.4°54.8°
05/09 - 12:45 AM57.7°55.0°
05/09 - 12:30 AM58.3°55.3°
05/09 - 12:15 AM58.7°55.5°
05/09 - 12:00 AM59.3°55.7°
05/08 - 11:45 PM59.9°56.0°
05/08 - 11:30 PM60.1°55.9°
05/08 - 11:15 PM61.2°56.6°
05/08 - 11:00 PM61.8°56.7°
05/08 - 10:45 PM62.7°57.0°
05/08 - 10:30 PM63.2°57.6°
05/08 - 10:15 PM63.7°58.3°
05/08 - 10:00 PM64.6°58.3°
05/08 - 09:45 PM65.2°58.1°
05/08 - 09:30 PM65.9°58.4°
05/08 - 09:15 PM66.8°58.2°
05/08 - 09:00 PM68.1°58.0°
05/08 - 08:45 PM69.3°57.8°
05/08 - 08:30 PM70.5°57.3°
05/08 - 08:15 PM72.2°56.6°
05/08 - 08:00 PM74.0°56.1°
05/08 - 07:45 PM75.8°55.0°
05/08 - 07:30 PM77.3°53.4°
05/08 - 07:15 PM78.9°52.2°
05/08 - 07:00 PM80.5°53.0°
05/08 - 06:45 PM82.0°53.9°
05/08 - 06:30 PM83.3°53.6°
05/08 - 06:15 PM84.3°53.3°
05/08 - 06:00 PM85.0°51.6°
05/08 - 05:45 PM85.6°50.8°
05/08 - 05:30 PM86.1°54.6°
05/08 - 05:15 PM86.6°56.0°
05/08 - 05:00 PM87.2°57.3°
05/08 - 04:45 PM87.5°56.8°
05/08 - 04:30 PM87.9°58.1°
05/08 - 04:15 PM88.1°58.8°
05/08 - 04:00 PM88.5°61.3°
05/08 - 03:45 PM88.8°62.3°
05/08 - 03:30 PM89.0°63.2°
05/08 - 03:15 PM88.9°63.2°
05/08 - 03:00 PM88.8°64.6°
05/08 - 02:45 PM88.8°64.9°
05/08 - 02:30 PM88.9°63.5°
05/08 - 02:15 PM88.7°65.3°
05/08 - 02:00 PM88.3°65.2°
05/08 - 01:45 PM88.0°66.9°
05/08 - 01:30 PM87.3°66.4°
05/08 - 01:15 PM86.9°65.6°
05/08 - 01:00 PM86.2°66.1°
05/08 - 12:45 PM85.3°65.1°
05/08 - 12:30 PM83.9°65.3°
05/08 - 12:15 PM83.3°65.4°